Time,TemperatureF,DewpointF,PressureIn,WindDirection,WindDirectionDegrees,WindSpeedMPH,WindSpeedGustMPH,Humidity,HourlyPrecipIn,Conditions,Clouds,dailyrainin,SoftwareType,DateUTC
2013-06-09 00:11:00,50.2,48.3,29.98,ESE,112,0.0,-999.0,93,-99.99,,,0.00,Acu-Link.com,2013-06-09 07:11:00,
2013-06-09 00:26:00,49.8,48.1,29.99,ESE,112,0.0,-999.0,94,-99.99,,,0.00,Acu-Link.com,2013-06-09 07:26:00,
2013-06-09 00:41:00,49.6,47.9,29.98,ESE,112,1.1,-999.0,94,-99.99,,,0.00,Acu-Link.com,2013-06-09 07:41:00,
2013-06-09 00:56:00,49.3,47.9,29.99,ESE,112,0.0,-999.0,95,-99.99,,,0.00,Acu-Link.com,2013-06-09 07:56:00,
2013-06-09 01:12:00,49.1,47.7,29.97,East,90,0.0,-999.0,95,-99.99,,,0.00,Acu-Link.com,2013-06-09 08:12:00,
2013-06-09 01:27:00,48.9,47.5,29.98,ESE,112,0.0,-999.0,95,-99.99,,,0.00,Acu-Link.com,2013-06-09 08:27:00,
2013-06-09 01:42:00,48.6,48.1,29.99,ESE,112,0.0,-999.0,98,-99.99,,,0.00,Acu-Link.com,2013-06-09 08:42:00,
2013-06-09 01:57:00,48.4,47.9,29.99,ESE,112,0.0,-999.0,98,-99.99,,,0.00,Acu-Link.com,2013-06-09 08:57:00,
2013-06-09 02:13:00,48.2,47.7,29.98,East,90,0.0,-999.0,98,-99.99,,,0.00,Acu-Link.com,2013-06-09 09:13:00,
2013-06-09 02:28:00,48.2,47.7,29.98,ESE,112,0.0,-999.0,98,-99.99,,,0.00,Acu-Link.com,2013-06-09 09:28:00,
2013-06-09 02:43:00,48.0,47.5,29.98,East,90,0.0,-999.0,98,-99.99,,,0.00,Acu-Link.com,2013-06-09 09:43:00,
2013-06-09 02:58:00,47.8,47.3,29.98,East,90,1.1,-999.0,98,-99.99,,,0.00,Acu-Link.com,2013-06-09 09:58:00,
2013-06-09 03:13:00,47.8,47.3,29.98,SE,135,0.0,-999.0,98,-99.99,,,0.00,Acu-Link.com,2013-06-09 10:13:00,
2013-06-09 03:29:00,47.5,47.0,29.98,East,90,0.0,-999.0,98,-99.99,,,0.00,Acu-Link.com,2013-06-09 10:29:00,
2013-06-09 03:44:00,47.5,47.0,29.98,ESE,112,0.0,-999.0,98,-99.99,,,0.00,Acu-Link.com,2013-06-09 10:44:00,
2013-06-09 03:59:00,47.5,47.0,29.98,SE,135,0.0,-999.0,98,-99.99,,,0.00,Acu-Link.com,2013-06-09 10:59:00,
2013-06-09 04:14:00,47.1,46.6,29.97,NNE,22,0.0,-999.0,98,-99.99,,,0.00,Acu-Link.com,2013-06-09 11:14:00,
2013-06-09 04:30:00,47.1,46.6,29.97,ESE,112,0.0,-999.0,98,-99.99,,,0.00,Acu-Link.com,2013-06-09 11:30:00,
2013-06-09 04:45:00,46.6,46.1,29.97,NE,45,0.0,-999.0,98,-99.99,,,0.00,Acu-Link.com,2013-06-09 11:45:00,
2013-06-09 05:00:00,46.6,46.1,29.97,ESE,112,0.0,-999.0,98,-99.99,,,0.00,Acu-Link.com,2013-06-09 12:00:00,
2013-06-09 05:16:00,46.6,46.1,29.97,ESE,112,0.0,-999.0,98,-99.99,,,0.00,Acu-Link.com,2013-06-09 12:16:00,
2013-06-09 05:46:00,46.2,45.7,29.98,ESE,112,0.0,-999.0,98,-99.99,,,0.00,Acu-Link.com,2013-06-09 12:46:00,
2013-06-09 06:01:00,46.0,45.5,30.00,ESE,112,0.0,-999.0,98,-99.99,,,0.00,Acu-Link.com,2013-06-09 13:01:00,
2013-06-09 06:17:00,46.2,45.7,29.98,ESE,112,0.0,-999.0,98,-99.99,,,0.00,Acu-Link.com,2013-06-09 13:17:00,
2013-06-09 06:32:00,46.4,45.9,29.99,ESE,112,0.0,-999.0,98,-99.99,,,0.00,Acu-Link.com,2013-06-09 13:32:00,
2013-06-09 06:47:00,46.8,46.3,29.99,ENE,67,0.0,-999.0,98,-99.99,,,0.00,Acu-Link.com,2013-06-09 13:47:00,
2013-06-09 07:03:00,47.3,46.8,29.99,ESE,112,0.0,-999.0,98,-99.99,,,0.00,Acu-Link.com,2013-06-09 14:03:00,
2013-06-09 07:18:00,49.1,48.6,29.99,WSW,247,0.0,-999.0,98,-99.99,,,0.00,Acu-Link.com,2013-06-09 14:18:00,
2013-06-09 07:33:00,53.2,52.6,29.99,NNE,22,0.0,-999.0,98,-99.99,,,0.00,Acu-Link.com,2013-06-09 14:33:00,
2013-06-09 07:49:00,56.3,52.5,29.99,North,0,3.7,-999.0,87,-99.99,,,0.00,Acu-Link.com,2013-06-09 14:49:00,
2013-06-09 08:04:00,58.1,53.3,29.99,WNW,292,2.7,-999.0,84,-99.99,,,0.00,Acu-Link.com,2013-06-09 15:04:00,
2013-06-09 08:19:00,59.7,52.8,29.99,NE,45,4.2,-999.0,78,-99.99,,,0.00,Acu-Link.com,2013-06-09 15:19:00,
2013-06-09 08:34:00,60.6,53.0,29.99,NNW,337,1.7,-999.0,76,-99.99,,,0.00,Acu-Link.com,2013-06-09 15:34:00,
2013-06-09 08:49:00,62.2,53.1,29.98,East,90,2.7,-999.0,72,-99.99,,,0.00,Acu-Link.com,2013-06-09 15:49:00,
2013-06-09 09:05:00,61.9,52.4,29.98,NW,315,3.7,-999.0,71,-99.99,,,0.00,Acu-Link.com,2013-06-09 16:05:00,
2013-06-09 09:20:00,62.8,54.0,29.98,West,270,4.7,-999.0,73,-99.99,,,0.00,Acu-Link.com,2013-06-09 16:20:00,
2013-06-09 09:35:00,63.7,53.7,29.97,NNW,337,6.3,-999.0,70,-99.99,,,0.00,Acu-Link.com,2013-06-09 16:35:00,
2013-06-09 09:50:00,65.5,54.7,29.98,West,270,2.7,-999.0,68,-99.99,,,0.00,Acu-Link.com,2013-06-09 16:50:00,
2013-06-09 10:05:00,65.8,54.9,29.97,North,0,3.7,-999.0,68,-99.99,,,0.00,Acu-Link.com,2013-06-09 17:05:00,
2013-06-09 10:21:00,66.7,55.8,29.96,North,0,5.3,-999.0,68,-99.99,,,0.00,Acu-Link.com,2013-06-09 17:21:00,
2013-06-09 10:36:00,67.6,55.0,29.98,West,270,4.2,-999.0,64,-99.99,,,0.00,Acu-Link.com,2013-06-09 17:36:00,
2013-06-09 10:51:00,68.4,56.2,29.96,North,0,2.7,-999.0,65,-99.99,,,0.00,Acu-Link.com,2013-06-09 17:51:00,
2013-06-09 11:06:00,68.2,54.7,29.96,NNE,22,5.8,-999.0,62,-99.99,,,0.00,Acu-Link.com,2013-06-09 18:06:00,
2013-06-09 11:22:00,68.0,54.0,29.98,NE,45,5.8,-999.0,61,-99.99,,,0.00,Acu-Link.com,2013-06-09 18:22:00,
2013-06-09 11:37:00,68.2,54.7,29.96,East,90,4.2,-999.0,62,-99.99,,,0.00,Acu-Link.com,2013-06-09 18:37:00,
2013-06-09 11:52:00,69.8,55.7,29.97,NNW,337,3.7,-999.0,61,-99.99,,,0.00,Acu-Link.com,2013-06-09 18:52:00,
2013-06-09 12:07:00,70.2,55.2,29.96,NW,315,4.7,-999.0,59,-99.99,,,0.00,Acu-Link.com,2013-06-09 19:07:00,
2013-06-09 12:22:00,68.5,53.1,29.96,NNE,22,4.2,-999.0,58,-99.99,,,0.00,Acu-Link.com,2013-06-09 19:22:00,
2013-06-09 12:37:00,68.2,53.3,29.95,NNW,337,4.7,-999.0,59,-99.99,,,0.00,Acu-Link.com,2013-06-09 19:37:00,
2013-06-09 12:53:00,69.8,53.9,29.96,NNE,22,14.5,-999.0,57,-99.99,,,0.00,Acu-Link.com,2013-06-09 19:53:00,
2013-06-09 13:08:00,68.0,51.7,29.96,NE,45,14.0,-999.0,56,-99.99,,,0.00,Acu-Link.com,2013-06-09 20:08:00,
2013-06-09 13:23:00,68.2,52.4,29.94,NNE,22,9.9,-999.0,57,-99.99,,,0.00,Acu-Link.com,2013-06-09 20:23:00,
2013-06-09 13:39:00,67.6,51.8,29.94,ESE,112,6.8,-999.0,57,-99.99,,,0.00,Acu-Link.com,2013-06-09 20:39:00,
2013-06-09 13:54:00,67.6,52.3,29.93,NE,45,8.3,-999.0,58,-99.99,,,0.00,Acu-Link.com,2013-06-09 20:54:00,
2013-06-09 14:09:00,68.4,52.6,29.93,West,270,6.3,-999.0,57,-99.99,,,0.00,Acu-Link.com,2013-06-09 21:09:00,
2013-06-09 14:24:00,68.2,52.4,29.95,ESE,112,9.4,-999.0,57,-99.99,,,0.00,Acu-Link.com,2013-06-09 21:24:00,
2013-06-09 14:40:00,67.6,51.8,29.94,ENE,67,7.3,-999.0,57,-99.99,,,0.00,Acu-Link.com,2013-06-09 21:40:00,
2013-06-09 14:55:00,69.3,53.4,29.92,NNW,337,5.8,-999.0,57,-99.99,,,0.00,Acu-Link.com,2013-06-09 21:55:00,
2013-06-09 15:10:00,67.6,51.8,29.93,NE,45,7.3,-999.0,57,-99.99,,,0.00,Acu-Link.com,2013-06-09 22:10:00,
2013-06-09 15:25:00,67.3,50.6,29.92,North,0,5.3,-999.0,55,-99.99,,,0.00,Acu-Link.com,2013-06-09 22:25:00,
2013-06-09 15:40:00,67.1,50.4,29.91,South,180,9.4,-999.0,55,-99.99,,,0.00,Acu-Link.com,2013-06-09 22:40:00,
2013-06-09 15:55:00,66.2,50.0,29.91,NW,315,9.9,-999.0,56,-99.99,,,0.00,Acu-Link.com,2013-06-09 22:55:00,
2013-06-09 16:11:00,65.7,50.0,29.91,ESE,112,7.3,-999.0,57,-99.99,,,0.00,Acu-Link.com,2013-06-09 23:11:00,
2013-06-09 16:26:00,65.3,50.6,29.91,SE,135,4.7,-999.0,59,-99.99,,,0.00,Acu-Link.com,2013-06-09 23:26:00,
2013-06-09 17:11:00,63.1,52.8,29.91,East,90,7.3,-999.0,69,-99.99,,,0.00,Acu-Link.com,2013-06-10 00:11:00,
2013-06-09 17:26:00,63.0,53.1,29.91,West,270,6.3,-999.0,70,-99.99,,,0.00,Acu-Link.com,2013-06-10 00:26:00,
2013-06-09 17:42:00,62.2,52.3,29.93,NW,315,3.7,-999.0,70,-99.99,,,0.00,Acu-Link.com,2013-06-10 00:42:00,
2013-06-09 17:57:00,63.3,52.6,29.91,NNW,337,7.3,-999.0,68,-99.99,,,0.00,Acu-Link.com,2013-06-10 00:57:00,
2013-06-09 18:12:00,63.0,51.9,29.90,North,0,5.3,-999.0,67,-99.99,,,0.00,Acu-Link.com,2013-06-10 01:12:00,
2013-06-09 18:28:00,63.0,51.0,29.91,NE,45,12.5,-999.0,65,-99.99,,,0.00,Acu-Link.com,2013-06-10 01:28:00,
2013-06-09 18:43:00,62.1,51.0,29.91,NNE,22,3.2,-999.0,67,-99.99,,,0.00,Acu-Link.com,2013-06-10 01:43:00,
2013-06-09 18:59:00,62.2,50.7,29.91,NNE,22,4.2,-999.0,66,-99.99,,,0.00,Acu-Link.com,2013-06-10 01:59:00,
2013-06-09 19:14:00,61.3,50.2,29.90,North,0,8.3,-999.0,67,-99.99,,,0.00,Acu-Link.com,2013-06-10 02:14:00,
2013-06-09 19:29:00,60.1,49.5,29.92,NNE,22,8.3,-999.0,68,-99.99,,,0.00,Acu-Link.com,2013-06-10 02:29:00,
2013-06-09 19:45:00,60.1,49.1,29.93,NW,315,8.3,-999.0,67,-99.99,,,0.00,Acu-Link.com,2013-06-10 02:45:00,
2013-06-09 20:00:00,58.8,48.7,29.91,WNW,292,6.8,-999.0,69,-99.99,,,0.00,Acu-Link.com,2013-06-10 03:00:00,
2013-06-09 20:16:00,57.9,48.6,29.92,WSW,247,6.8,-999.0,71,-99.99,,,0.00,Acu-Link.com,2013-06-10 03:16:00,
2013-06-09 21:02:00,54.7,47.6,29.91,WNW,292,2.7,-999.0,77,-99.99,,,0.00,Acu-Link.com,2013-06-10 04:02:00,
2013-06-09 21:17:00,53.8,47.4,29.91,NNE,22,2.7,-999.0,79,-99.99,,,0.00,Acu-Link.com,2013-06-10 04:17:00,
2013-06-09 21:33:00,53.2,47.2,29.92,WSW,247,3.7,-999.0,80,-99.99,,,0.00,Acu-Link.com,2013-06-10 04:33:00,
2013-06-09 21:48:00,52.7,46.7,29.92,West,270,2.7,-999.0,80,-99.99,,,0.00,Acu-Link.com,2013-06-10 04:48:00,
2013-06-09 22:04:00,52.2,46.5,29.93,NE,45,3.7,-999.0,81,-99.99,,,0.00,Acu-Link.com,2013-06-10 05:04:00,
2013-06-09 22:19:00,51.4,46.7,29.94,NNE,22,2.7,-999.0,84,-99.99,,,0.00,Acu-Link.com,2013-06-10 05:19:00,
2013-06-09 22:35:00,50.4,46.4,29.93,SE,135,1.7,-999.0,86,-99.99,,,0.00,Acu-Link.com,2013-06-10 05:35:00,
2013-06-09 22:50:00,49.8,46.4,29.94,NE,45,1.1,-999.0,88,-99.99,,,0.00,Acu-Link.com,2013-06-10 05:50:00,
2013-06-09 23:05:00,50.0,46.6,29.94,NNE,22,1.7,-999.0,88,-99.99,,,0.00,Acu-Link.com,2013-06-10 06:05:00,
2013-06-09 23:20:00,50.0,46.6,29.94,NNE,22,2.2,-999.0,88,-99.99,,,0.00,Acu-Link.com,2013-06-10 06:20:00,
2013-06-09 23:36:00,49.3,46.2,29.94,East,90,0.0,-999.0,89,-99.99,,,0.00,Acu-Link.com,2013-06-10 06:36:00,
2013-06-09 23:52:00,48.4,45.9,29.93,ESE,112,0.0,-999.0,91,-99.99,,,0.00,Acu-Link.com,2013-06-10 06:52:00,